Location: Huppendorf
(49.9333°N, 11.1500°E)
Time: 02:45:27
(UTC+00:00)

Cosmos 2150 Rocket - Pass Details

Date: 27 February 2020
Orbit: 748 x 808 km, 74.0° (Epoch: 05 April)

Event Time Altitude Azimuth Distance (km) Brightness Sun altitude
Rises 19:19:05 0° 334° (NNW) 3,303 7.9 -24.0°
Reaches altitude 10° 19:21:29 10° 333° (NNW) 2,378 7.1 -24.4°
Maximum altitude 19:26:53 74° 250° (WSW) 839 4.2 -25.2°
Enters shadow 19:28:25 48° 179° (S) 1,052 4.5 -25.5°
